QPF
0.00 0.00 0.00 0.00 0.00 0.00 0.00 0.00 0.00 0.00 0.00 0.00 0.00 0.00 0.00 0.00 0.00 0.01 0.04 0.12 0.20 0.23 0.34 0.43 0.41 0.32 0.23 0.16 0.10 0.07 0.05 0.03 0.02 0.01 0.02 0.02 0.02 0.01 0.01 0.02 0.03 0.04 0.04 0.03
0.00 0.00 0.00 0.00 0.00 0.00 0.00 0.00 0.00 0.00 0.00 0.00 0.00 0.00 0.00 0.00 0.00 0.00 0.01 0.03 0.12 0.24 0.39 0.51 0.47 0.41 0.39 0.43 0.38 0.27 0.16 0.10 0.07 0.04 0.04 0.03 0.03 0.03 0.03 0.03 0.05 0.06 0.05 0.04
0.00 0.00 0.00 0.00 0.00 0.00 0.00 0.00 0.00 0.00 0.00 0.00 0.00 0.00 0.00 0.00 0.00 0.00 0.00 0.01 0.04 0.07 0.12 0.18 0.20 0.22 0.25 0.30 0.30 0.27 0.24 0.19 0.14 0.09 0.06 0.04 0.03 0.03 0.05 0.05 0.07 0.05 0.04 0.04
0.00 0.00 0.00 0.00 0.00 0.00 0.00 0.00 0.00 0.00 0.00 0.00 0.00 0.00 0.00 0.00 0.00 0.01 0.02 0.03 0.06 0.10 0.11 0.12 0.13 0.15 0.18 0.18 0.18 0.22 0.25 0.24 0.20 0.18 0.12 0.08 0.06 0.05 0.09 0.07 0.04 0.03 0.03 0.03
0.00 0.00 0.00 0.00 0.00 0.00 0.00 0.00 0.00 0.00 0.00 0.00 0.00 0.00 0.00 0.00 0.00 0.01 0.04 0.06 0.09 0.13 0.17 0.17 0.17 0.17 0.16 0.17 0.19 0.21 0.22 0.24 0.22 0.19 0.16 0.13 0.09 0.08 0.08 0.05 0.02 0.02 0.03 0.02
0.00 0.00 0.00 0.00 0.00 0.00 0.00 0.00 0.00 0.00 0.00 0.00 0.00 0.00 0.00 0.00 0.00 0.02 0.07 0.09 0.13 0.17 0.19 0.21 0.19 0.18 0.18 0.20 0.20 0.16 0.16 0.15 0.14 0.12 0.11 0.10 0.09 0.07 0.05 0.03 0.02 0.02 0.02 0.01
0.00 0.00 0.00 0.00 0.00 0.00 0.00 0.00 0.00 0.00 0.00 0.00 0.00 0.00 0.01 0.02 0.02 0.05 0.11 0.14 0.19 0.21 0.19 0.19 0.18 0.18 0.17 0.13 0.10 0.07 0.07 0.07 0.07 0.06 0.06 0.06 0.05 0.05 0.03 0.02 0.01 0.01 0.01 0.00
0.00 0.00 0.00 0.00 0.00 0.00 0.00 0.00 0.02 0.02 0.01 0.00 0.00 0.01 0.05 0.06 0.10 0.13 0.16 0.20 0.21 0.18 0.13 0.11 0.09 0.08 0.08 0.08 0.07 0.04 0.04 0.04 0.03 0.03 0.02 0.02 0.01 0.01 0.00 0.00 0.00 0.00 0.00 0.00
0.00 0.00 0.00 0.00 0.00 0.01 0.01 0.01 0.01 0.02 0.03 0.02 0.00 0.01 0.04 0.08 0.13 0.20 0.22 0.20 0.18 0.14 0.11 0.10 0.10 0.09 0.08 0.07 0.06 0.05 0.04 0.04 0.03 0.02 0.02 0.01 0.00 0.00 0.00 0.00 0.00 0.00 0.00 0.00
0.00 0.00 0.00 0.00 0.00 0.00 0.00 0.01 0.02 0.04 0.05 0.03 0.01 0.01 0.06 0.14 0.14 0.16 0.23 0.28 0.23 0.17 0.15 0.15 0.15 0.14 0.13 0.11 0.09 0.07 0.06 0.05 0.04 0.03 0.02 0.01 0.01 0.00 0.00 0.00 0.00 0.00 0.00 0.00
0.00 0.00 0.00 0.00 0.00 0.00 0.00 0.01 0.03 0.05 0.09 0.10 0.10 0.07 0.07 0.10 0.15 0.21 0.27 0.31 0.26 0.21 0.18 0.17 0.15 0.12 0.11 0.12 0.11 0.09 0.06 0.06 0.05 0.03 0.02 0.01 0.01 0.00 0.00 0.00 0.00 0.00 0.00 0.00
0.00 0.00 0.00 0.00 0.00 0.00 0.00 0.01 0.01 0.04 0.07 0.10 0.13 0.09 0.05 0.09 0.14 0.19 0.23 0.23 0.18 0.16 0.14 0.12 0.09 0.07 0.07 0.07 0.08 0.07 0.05 0.05 0.04 0.02 0.01 0.00 0.00 0.00 0.00 0.00 0.00 0.00 0.00 0.00
0.00 0.00 0.00 0.00 0.00 0.00 0.00 0.00 0.00 0.00 0.01 0.03 0.06 0.06 0.05 0.10 0.18 0.23 0.27 0.27 0.20 0.15 0.12 0.08 0.05 0.04 0.03 0.03 0.03 0.03 0.03 0.03 0.02 0.02 0.01 0.00 0.00 0.00 0.00 0.00 0.00 0.00 0.00 0.00
0.00 0.00 0.00 0.00 0.00 0.00 0.00 0.00 0.00 0.00 0.01 0.01 0.02 0.02 0.03 0.07 0.14 0.20 0.23 0.21 0.15 0.11 0.08 0.05 0.03 0.02 0.02 0.02 0.01 0.01 0.03 0.02 0.01 0.01 0.01 0.01 0.00 0.00 0.00 0.00 0.00 0.00 0.00 0.00
0.00 0.00 0.00 0.00 0.00 0.00 0.00 0.00 0.00 0.00 0.00 0.01 0.01 0.02 0.02 0.04 0.07 0.12 0.17 0.17 0.13 0.09 0.06 0.03 0.02 0.02 0.01 0.01 0.01 0.01 0.02 0.02 0.02 0.02 0.02 0.02 0.01 0.00 0.00 0.00 0.00 0.00 0.00 0.00
0.00 0.00 0.00 0.00 0.00 0.00 0.00 0.00 0.00 0.00 0.00 0.01 0.01 0.02 0.03 0.05 0.08 0.12 0.14 0.13 0.10 0.07 0.04 0.03 0.02 0.02 0.02 0.01 0.01 0.01 0.02 0.02 0.02 0.03 0.02 0.02 0.02 0.01 0.00 0.00 0.00 0.00 0.00 0.00
0.00 0.00 0.00 0.00 0.00 0.00 0.00 0.00 0.00 0.00 0.00 0.00 0.01 0.02 0.04 0.07 0.08 0.08 0.08 0.06 0.04 0.02 0.02 0.02 0.01 0.02 0.01 0.01 0.01 0.02 0.03 0.03 0.03 0.02 0.02 0.02 0.01 0.01 0.00 0.00 0.00 0.00 0.00 0.00
0.00 0.00 0.00 0.00 0.00 0.00 0.00 0.00 0.00 0.00 0.00 0.00 0.00 0.01 0.02 0.03 0.03 0.02 0.02 0.01 0.01 0.01 0.00 0.00 0.00 0.00 0.00 0.00 0.00 0.02 0.04 0.04 0.03 0.02 0.01 0.00 0.00 0.00 0.00 0.00 0.00 0.00 0.00 0.00
0.00 0.00 0.00 0.00 0.00 0.00 0.00 0.00 0.00 0.00 0.00 0.00 0.00 0.00 0.00 0.00 0.01 0.01 0.01 0.00 0.00 0.00 0.00 0.00 0.00 0.00 0.00 0.00 0.01 0.02 0.04 0.05 0.05 0.03 0.01 0.00 0.00 0.00 0.00 0.00 0.00 0.00 0.00 0.00
0.00 0.00 0.00 0.00 0.00 0.00 0.00 0.00 0.00 0.00 0.00 0.00 0.00 0.00 0.00 0.00 0.01 0.01 0.00 0.00 0.00 0.00 0.00 0.00 0.00 0.00 0.00 0.01 0.02 0.04 0.05 0.05 0.04 0.03 0.01 0.00 0.00 0.00 0.00 0.00 0.00 0.00 0.00 0.00
0.00 0.00 0.00 0.00 0.00 0.00 0.00 0.00 0.00 0.00 0.00 0.00 0.00 0.00 0.00 0.00 0.00 0.00 0.00 0.00 0.00 0.00 0.00 0.00 0.00 0.00 0.01 0.02 0.03 0.04 0.05 0.04 0.02 0.02 0.01 0.01 0.00 0.00 0.00 0.00 0.00 0.00 0.00 0.00
0.00 0.00 0.00 0.00 0.00 0.00 0.00 0.00 0.00 0.00 0.00 0.00 0.00 0.00 0.00 0.00 0.00 0.00 0.00 0.00 0.00 0.00 0.00 0.00 0.00 0.01 0.01 0.02 0.02 0.03 0.03 0.02 0.02 0.01 0.00 0.00 0.00 0.00 0.00 0.00 0.00 0.00 0.00 0.00
0.00 0.00 0.00 0.00 0.00 0.00 0.00 0.00 0.00 0.00 0.00 0.00 0.00 0.00 0.00 0.00 0.00 0.00 0.00 0.00 0.00 0.00 0.00 0.00 0.00 0.01 0.01 0.01 0.02 0.02 0.02 0.01 0.01 0.01 0.00 0.00 0.00 0.00 0.00 0.00 0.00 0.00 0.00 0.00
0.00 0.00 0.00 0.00 0.00 0.00 0.00 0.00 0.00 0.00 0.00 0.00 0.00 0.00 0.00 0.00 0.00 0.00 0.00 0.00 0.00 0.00 0.00 0.00 0.00 0.01 0.01 0.02 0.02 0.02 0.01 0.01 0.01 0.01 0.00 0.00 0.00 0.00 0.00 0.00 0.00 0.00 0.00 0.00
0.00 0.00 0.00 0.00 0.00 0.00 0.00 0.00 0.00 0.00 0.00 0.00 0.00 0.00 0.00 0.00 0.00 0.00 0.00 0.00 0.00 0.00 0.00 0.00 0.00 0.01 0.01 0.01 0.01 0.01 0.01 0.00 0.00 0.01 0.00 0.00 0.00 0.00 0.00 0.00 0.00 0.00 0.00 0.00
0.00 0.00 0.00 0.00 0.00 0.00 0.00 0.00 0.00 0.00 0.00 0.00 0.00 0.00 0.00 0.00 0.00 0.00 0.00 0.00 0.00 0.00 0.00 0.00 0.00 0.00 0.01 0.00 0.00 0.00 0.01 0.01 0.01 0.01 0.00 0.00 0.00 0.00 0.00 0.00 0.00 0.00 0.00 0.00
MSLP
1012.56 1013.18 1013.63 1013.90 1014.00 1013.98 1013.84 1013.61 1013.28 1012.86 1012.33 1011.70 1010.99 1010.23 1009.50 1008.86 1008.37 1008.07 1007.99 1008.12 1008.42 1008.82 1009.28 1009.72 1010.11 1010.42 1010.66 1010.84 1011.00 1011.16 1011.34 1011.56 1011.79 1012.01 1012.21 1012.35 1012.41 1012.40 1012.34 1012.24 1012.16 1012.12 1012.15 1012.27
1012.85 1013.33 1013.63 1013.78 1013.80 1013.75 1013.65 1013.50 1013.30 1013.02 1012.63 1012.12 1011.50 1010.80 1010.08 1009.42 1008.90 1008.57 1008.46 1008.56 1008.85 1009.26 1009.71 1010.13 1010.48 1010.74 1010.90 1011.00 1011.08 1011.16 1011.29 1011.48 1011.70 1011.94 1012.16 1012.32 1012.40 1012.39 1012.30 1012.18 1012.06 1011.98 1011.98 1012.09
1012.89 1013.20 1013.35 1013.39 1013.36 1013.33 1013.31 1013.31 1013.30 1013.22 1013.03 1012.70 1012.21 1011.60 1010.92 1010.26 1009.71 1009.33 1009.17 1009.22 1009.46 1009.82 1010.22 1010.60 1010.89 1011.08 1011.16 1011.18 1011.17 1011.19 1011.28 1011.43 1011.65 1011.89 1012.13 1012.30 1012.40 1012.39 1012.30 1012.16 1012.01 1011.91 1011.89 1011.96
1012.73 1012.85 1012.86 1012.82 1012.79 1012.84 1012.97 1013.18 1013.41 1013.58 1013.64 1013.52 1013.19 1012.69 1012.07 1011.41 1010.81 1010.37 1010.11 1010.07 1010.21 1010.48 1010.79 1011.08 1011.29 1011.39 1011.39 1011.33 1011.26 1011.23 1011.27 1011.40 1011.61 1011.86 1012.11 1012.30 1012.41 1012.41 1012.32 1012.18 1012.02 1011.90 1011.86 1011.92
1012.47 1012.42 1012.32 1012.24 1012.26 1012.43 1012.76 1013.22 1013.72 1014.19 1014.51 1014.61 1014.46 1014.06 1013.48 1012.81 1012.16 1011.61 1011.23 1011.05 1011.05 1011.18 1011.37 1011.54 1011.64 1011.65 1011.58 1011.45 1011.33 1011.25 1011.26 1011.38 1011.58 1011.84 1012.10 1012.31 1012.43 1012.45 1012.38 1012.24 1012.09 1011.97 1011.92 1011.96
1012.23 1012.04 1011.87 1011.80 1011.91 1012.24 1012.80 1013.52 1014.31 1015.05 1015.62 1015.92 1015.92 1015.62 1015.06 1014.36 1013.62 1012.94 1012.41 1012.07 1011.90 1011.86 1011.90 1011.94 1011.94 1011.86 1011.71 1011.53 1011.36 1011.25 1011.25 1011.35 1011.55 1011.81 1012.08 1012.31 1012.45 1012.50 1012.45 1012.34 1012.21 1012.10 1012.05 1012.08
1012.11 1011.85 1011.66 1011.64 1011.86 1012.37 1013.14 1014.11 1015.14 1016.11 1016.88 1017.34 1017.44 1017.18 1016.63 1015.87 1015.03 1014.22 1013.53 1013.01 1012.67 1012.47 1012.36 1012.27 1012.16 1012.00 1011.79 1011.57 1011.37 1011.25 1011.23 1011.32 1011.52 1011.78 1012.05 1012.30 1012.47 1012.56 1012.55 1012.48 1012.38 1012.30 1012.26 1012.28
1012.18 1011.89 1011.74 1011.80 1012.16 1012.83 1013.77 1014.92 1016.12 1017.23 1018.11 1018.66 1018.80 1018.55 1017.97 1017.14 1016.20 1015.28 1014.45 1013.79 1013.29 1012.95 1012.71 1012.51 1012.32 1012.10 1011.85 1011.60 1011.39 1011.25 1011.22 1011.31 1011.50 1011.76 1012.04 1012.30 1012.50 1012.62 1012.66 1012.64 1012.58 1012.53 1012.51 1012.54
1012.42 1012.19 1012.10 1012.27 1012.74 1013.53 1014.59 1015.82 1017.09 1018.25 1019.15 1019.69 1019.81 1019.53 1018.89 1018.01 1017.00 1015.99 1015.07 1014.31 1013.71 1013.27 1012.95 1012.68 1012.44 1012.18 1011.92 1011.66 1011.44 1011.30 1011.27 1011.34 1011.52 1011.77 1012.06 1012.33 1012.55 1012.71 1012.79 1012.82 1012.82 1012.80 1012.80 1012.83
1012.79 1012.66 1012.68 1012.96 1013.52 1014.36 1015.45 1016.67 1017.90 1018.98 1019.80 1020.26 1020.31 1019.96 1019.28 1018.36 1017.33 1016.29 1015.35 1014.55 1013.92 1013.45 1013.09 1012.81 1012.55 1012.29 1012.03 1011.78 1011.57 1011.43 1011.39 1011.46 1011.62 1011.86 1012.13 1012.40 1012.64 1012.83 1012.95 1013.03 1013.06 1013.08 1013.10 1013.13
1013.20 1013.20 1013.35 1013.71 1014.32 1015.16 1016.19 1017.30 1018.38 1019.30 1019.96 1020.27 1020.21 1019.80 1019.09 1018.18 1017.17 1016.19 1015.29 1014.55 1013.96 1013.51 1013.18 1012.92 1012.68 1012.45 1012.21 1011.98 1011.79 1011.67 1011.62 1011.68 1011.82 1012.03 1012.29 1012.55 1012.79 1012.99 1013.14 1013.25 1013.32 1013.37 1013.40 1013.43
1013.54 1013.70 1013.96 1014.40 1015.01 1015.79 1016.68 1017.61 1018.47 1019.16 1019.61 1019.75 1019.58 1019.11 1018.40 1017.55 1016.65 1015.78 1015.01 1014.37 1013.88 1013.52 1013.26 1013.05 1012.86 1012.67 1012.47 1012.28 1012.11 1012.00 1011.96 1012.00 1012.12 1012.31 1012.53 1012.77 1013.00 1013.20 1013.36 1013.48 1013.57 1013.64 1013.68 1013.71
1013.77 1014.06 1014.43 1014.89 1015.47 1016.14 1016.85 1017.55 1018.16 1018.60 1018.82 1018.79 1018.52 1018.03 1017.38 1016.63 1015.88 1015.19 1014.59 1014.12 1013.78 1013.53 1013.36 1013.22 1013.09 1012.94 1012.79 1012.64 1012.50 1012.41 1012.37 1012.41 1012.51 1012.66 1012.85 1013.06 1013.27 1013.45 1013.60 1013.73 1013.82 1013.90 1013.94 1013.97
1013.87 1014.26 1014.68 1015.14 1015.65 1016.18 1016.69 1017.15 1017.50 1017.70 1017.72 1017.55 1017.22 1016.74 1016.19 1015.60 1015.04 1014.56 1014.17 1013.88 1013.69 1013.57 1013.49 1013.42 1013.34 1013.24 1013.12 1013.00 1012.90 1012.83 1012.81 1012.84 1012.93 1013.06 1013.22 1013.39 1013.56 1013.72 1013.86 1013.97 1014.06 1014.13 1014.18 1014.21
1013.86 1014.29 1014.73 1015.15 1015.56 1015.94 1016.26 1016.48 1016.60 1016.59 1016.45 1016.19 1015.84 1015.43 1015.00 1014.60 1014.25 1013.99 1013.80 1013.70 1013.65 1013.63 1013.62 1013.60 1013.56 1013.49 1013.41 1013.32 1013.25 1013.21 1013.21 1013.26 1013.34 1013.46 1013.60 1013.73 1013.87 1013.99 1014.11 1014.20 1014.28 1014.35 1014.40 1014.43
1013.80 1014.22 1014.62 1014.97 1015.27 1015.49 1015.62 1015.65 1015.58 1015.41 1015.16 1014.86 1014.53 1014.22 1013.94 1013.73 1013.59 1013.53 1013.53 1013.57 1013.64 1013.70 1013.73 1013.74 1013.71 1013.65 1013.59 1013.53 1013.49 1013.49 1013.52 1013.59 1013.69 1013.81 1013.93 1014.05 1014.15 1014.25 1014.34 1014.41 1014.48 1014.54 1014.60 1014.63
1013.76 1014.12 1014.43 1014.68 1014.84 1014.92 1014.88 1014.76 1014.54 1014.26 1013.96 1013.65 1013.39 1013.18 1013.06 1013.03 1013.07 1013.18 1013.33 1013.49 1013.62 1013.72 1013.77 1013.77 1013.73 1013.68 1013.62 1013.58 1013.58 1013.62 1013.70 1013.81 1013.94 1014.07 1014.19 1014.30 1014.40 1014.47 1014.54 1014.60 1014.66 1014.72 1014.78 1014.83
1013.80 1014.05 1014.24 1014.36 1014.39 1014.31 1014.14 1013.89 1013.57 1013.23 1012.90 1012.63 1012.43 1012.34 1012.35 1012.47 1012.67 1012.91 1013.16 1013.38 1013.55 1013.66 1013.70 1013.67 1013.62 1013.55 1013.50 1013.48 1013.52 1013.60 1013.74 1013.90 1014.07 1014.23 1014.38 1014.50 1014.59 1014.66 1014.71 1014.77 1014.83 1014.90 1014.97 1015.03
1013.93 1014.04 1014.09 1014.07 1013.95 1013.75 1013.46 1013.11 1012.72 1012.34 1012.01 1011.77 1011.64 1011.64 1011.77 1012.00 1012.30 1012.63 1012.94 1013.21 1013.39 1013.49 1013.50 1013.45 1013.38 1013.30 1013.25 1013.26 1013.34 1013.47 1013.66 1013.88 1014.10 1014.31 1014.49 1014.63 1014.74 1014.81 1014.88 1014.94 1015.00 1015.08 1015.16 1015.24
1014.13 1014.09 1013.99 1013.81 1013.57 1013.24 1012.84 1012.41 1011.97 1011.57 1011.25 1011.04 1010.96 1011.03 1011.24 1011.55 1011.92 1012.30 1012.65 1012.93 1013.12 1013.20 1013.20 1013.14 1013.05 1012.98 1012.95 1012.99 1013.10 1013.29 1013.53 1013.80 1014.08 1014.33 1014.55 1014.72 1014.85 1014.95 1015.03 1015.10 1015.18 1015.28 1015.37 1015.47
1014.30 1014.11 1013.87 1013.56 1013.19 1012.75 1012.27 1011.77 1011.30 1010.88 1010.56 1010.37 1010.33 1010.44 1010.69 1011.04 1011.45 1011.87 1012.25 1012.54 1012.74 1012.83 1012.84 1012.78 1012.71 1012.65 1012.65 1012.72 1012.87 1013.10 1013.39 1013.71 1014.03 1014.33 1014.59 1014.79 1014.96 1015.08 1015.19 1015.28 1015.38 1015.49 1015.61 1015.73
1014.32 1014.01 1013.65 1013.22 1012.75 1012.23 1011.68 1011.14 1010.63 1010.20 1009.88 1009.71 1009.68 1009.82 1010.09 1010.46 1010.90 1011.33 1011.73 1012.05 1012.28 1012.40 1012.44 1012.42 1012.39 1012.37 1012.40 1012.51 1012.70 1012.96 1013.29 1013.64 1013.99 1014.32 1014.61 1014.85 1015.05 1015.20 1015.34 1015.46 1015.59 1015.72 1015.86 1015.99
1014.07 1013.67 1013.21 1012.70 1012.15 1011.57 1010.99 1010.43 1009.91 1009.48 1009.17 1009.00 1008.99 1009.13 1009.41 1009.79 1010.24 1010.70 1011.13 1011.49 1011.77 1011.95 1012.05 1012.09 1012.12 1012.16 1012.24 1012.38 1012.60 1012.89 1013.23 1013.59 1013.96 1014.31 1014.63 1014.90 1015.12 1015.31 1015.47 1015.63 1015.78 1015.94 1016.09 1016.25
1013.45 1012.98 1012.46 1011.90 1011.31 1010.72 1010.13 1009.58 1009.09 1008.68 1008.38 1008.23 1008.22 1008.37 1008.65 1009.04 1009.50 1009.98 1010.45 1010.87 1011.21 1011.47 1011.66 1011.79 1011.89 1012.00 1012.13 1012.32 1012.56 1012.85 1013.20 1013.56 1013.94 1014.29 1014.62 1014.91 1015.16 1015.38 1015.57 1015.75 1015.93 1016.11 1016.29 1016.46
1012.42 1011.90 1011.34 1010.76 1010.19 1009.62 1009.08 1008.57 1008.13 1007.77 1007.51 1007.39 1007.40 1007.55 1007.83 1008.23 1008.70 1009.21 1009.72 1010.20 1010.62 1010.97 1011.25 1011.48 1011.67 1011.85 1012.04 1012.26 1012.52 1012.82 1013.15 1013.51 1013.88 1014.23 1014.56 1014.86 1015.13 1015.37 1015.60 1015.80 1016.00 1016.20 1016.40 1016.58
1010.99 1010.44 1009.88 1009.33 1008.80 1008.30 1007.83 1007.42 1007.06 1006.78 1006.59 1006.50 1006.54 1006.71 1007.00 1007.39 1007.87 1008.40 1008.94 1009.48 1009.97 1010.41 1010.78 1011.10 1011.38 1011.63 1011.87 1012.13 1012.41 1012.71 1013.04 1013.39 1013.74 1014.09 1014.42 1014.73 1015.02 1015.28 1015.52 1015.75 1015.97 1016.18 1016.39 1016.59
Thickness
5756 5738 5727 5735 5742 5742 5744 5742 5742 5758 5781 5778 5773 5781 5799 5811 5809 5804 5801 5800 5797 5795 5799 5801 5801 5799 5795 5793 5792 5793 5790 5789 5786 5782 5778 5775 5773 5774 5774 5774 5773 5772 5770 5768
5732 5727 5744 5752 5753 5751 5747 5741 5741 5756 5775 5775 5769 5775 5792 5802 5801 5801 5798 5795 5792 5788 5788 5790 5790 5790 5787 5784 5785 5784 5783 5781 5780 5778 5775 5773 5771 5769 5768 5768 5766 5765 5763 5762
5724 5737 5757 5755 5748 5745 5743 5739 5739 5743 5758 5765 5761 5754 5769 5786 5792 5792 5790 5788 5785 5782 5779 5778 5779 5780 5779 5778 5778 5777 5774 5772 5773 5772 5769 5766 5763 5761 5759 5758 5758 5758 5757 5755
5734 5748 5750 5745 5743 5743 5728 5746 5747 5744 5732 5725 5738 5717 5746 5763 5768 5769 5768 5766 5764 5763 5761 5761 5762 5763 5765 5766 5767 5765 5762 5762 5763 5762 5759 5756 5752 5749 5749 5750 5750 5750 5749 5748
5722 5737 5737 5734 5740 5743 5736 5747 5742 5738 5726 5717 5723 5713 5724 5744 5744 5747 5748 5747 5745 5745 5745 5745 5746 5749 5752 5754 5753 5752 5751 5750 5750 5750 5749 5747 5745 5743 5743 5743 5741 5741 5740 5740
5729 5743 5743 5741 5746 5746 5742 5732 5723 5712 5701 5688 5707 5705 5702 5719 5726 5733 5733 5732 5732 5732 5732 5731 5734 5736 5737 5740 5739 5739 5739 5739 5740 5740 5739 5737 5735 5734 5733 5732 5731 5730 5730 5729
5714 5728 5740 5745 5732 5732 5725 5694 5671 5668 5661 5669 5698 5697 5694 5711 5718 5722 5718 5717 5718 5719 5719 5719 5721 5721 5722 5724 5726 5727 5728 5727 5728 5728 5727 5727 5726 5724 5722 5721 5721 5719 5718 5717
5695 5695 5725 5734 5726 5716 5714 5694 5663 5651 5649 5662 5684 5681 5689 5699 5702 5705 5705 5703 5704 5704 5705 5707 5709 5709 5710 5713 5715 5716 5717 5717 5717 5717 5716 5716 5716 5714 5713 5712 5710 5709 5707 5707
5695 5696 5725 5732 5731 5721 5703 5687 5684 5660 5655 5649 5659 5677 5679 5685 5684 5685 5686 5687 5687 5689 5691 5693 5697 5699 5699 5700 5702 5704 5705 5705 5705 5705 5704 5704 5703 5702 5701 5700 5699 5697 5696 5696
5709 5695 5711 5722 5721 5710 5699 5684 5665 5650 5638 5628 5641 5651 5653 5664 5667 5669 5669 5669 5671 5673 5675 5677 5681 5685 5687 5688 5689 5690 5691 5691 5691 5692 5692 5691 5690 5689 5689 5688 5687 5686 5685 5684
5711 5688 5692 5700 5695 5690 5687 5672 5656 5642 5638 5624 5616 5630 5662 5659 5659 5658 5658 5658 5658 5659 5659 5662 5665 5668 5672 5674 5674 5674 5676 5677 5679 5679 5678 5678 5677 5677 5677 5676 5675 5674 5674 5674
5704 5680 5671 5684 5699 5703 5688 5672 5654 5637 5629 5623 5610 5621 5659 5654 5652 5650 5647 5647 5647 5648 5648 5648 5651 5654 5656 5659 5661 5661 5664 5665 5667 5667 5667 5666 5666 5665 5664 5664 5664 5664 5663 5664
5701 5673 5655 5658 5668 5682 5679 5672 5661 5642 5627 5613 5604 5620 5649 5644 5641 5640 5637 5636 5635 5637 5637 5637 5638 5641 5644 5646 5649 5651 5653 5654 5656 5656 5655 5654 5654 5654 5653 5653 5653 5653 5653 5653
5703 5673 5657 5651 5656 5666 5668 5670 5660 5639 5621 5613 5616 5626 5636 5634 5630 5628 5627 5625 5624 5625 5626 5627 5628 5630 5633 5636 5638 5640 5641 5644 5645 5645 5644 5643 5643 5644 5643 5643 5643 5643 5643 5643
5694 5672 5671 5669 5674 5676 5673 5672 5665 5650 5639 5627 5629 5629 5632 5632 5628 5624 5621 5616 5614 5615 5616 5618 5618 5620 5622 5625 5627 5629 5631 5633 5635 5634 5634 5634 5635 5635 5634 5633 5633 5633 5633 5633
5683 5672 5672 5668 5675 5674 5671 5674 5671 5663 5656 5646 5640 5634 5639 5635 5628 5621 5616 5612 5609 5609 5610 5611 5611 5612 5613 5615 5617 5619 5621 5622 5624 5624 5624 5625 5625 5625 5624 5623 5623 5623 5623 5622
5671 5663 5654 5647 5660 5659 5653 5669 5670 5666 5664 5654 5638 5636 5637 5630 5625 5618 5614 5610 5607 5607 5607 5606 5605 5605 5606 5607 5609 5610 5612 5613 5614 5614 5615 5615 5615 5614 5613 5613 5613 5612 5612 5611
5668 5655 5643 5639 5643 5636 5653 5680 5680 5669 5664 5660 5651 5644 5636 5631 5626 5621 5616 5611 5608 5606 5604 5602 5601 5600 5600 5602 5603 5604 5604 5605 5605 5605 5605 5605 5604 5603 5602 5602 5602 5602 5602 5601
5674 5657 5639 5628 5626 5636 5660 5675 5674 5662 5655 5658 5650 5644 5638 5633 5624 5618 5619 5615 5610 5607 5604 5601 5599 5598 5597 5597 5597 5597 5597 5597 5597 5596 5596 5596 5595 5594 5593 5593 5593 5593 5593 5592
5668 5657 5638 5626 5621 5621 5647 5673 5678 5662 5643 5655 5651 5643 5637 5627 5610 5612 5620 5616 5611 5607 5603 5600 5599 5597 5594 5593 5593 5592 5591 5591 5590 5590 5590 5589 5588 5587 5587 5586 5586 5585 5585 5583
5645 5640 5631 5623 5618 5629 5658 5672 5668 5637 5635 5654 5653 5646 5638 5626 5624 5624 5622 5616 5612 5607 5604 5601 5598 5594 5592 5591 5590 5588 5587 5587 5586 5585 5584 5583 5582 5581 5581 5580 5580 5578 5577 5575
5637 5628 5623 5620 5612 5622 5660 5660 5648 5646 5655 5656 5654 5651 5644 5637 5631 5626 5621 5615 5611 5606 5604 5601 5595 5592 5591 5590 5588 5585 5584 5585 5583 5582 5580 5578 5577 5577 5577 5575 5573 5572 5570 5567
5643 5637 5630 5628 5628 5648 5657 5657 5660 5659 5654 5655 5653 5653 5647 5638 5632 5628 5622 5616 5612 5608 5604 5601 5596 5592 5590 5589 5588 5584 5584 5583 5581 5578 5576 5574 5573 5572 5571 5569 5567 5565 5563 5559
5648 5652 5639 5635 5641 5650 5653 5657 5658 5657 5658 5659 5657 5654 5648 5641 5636 5629 5624 5618 5613 5610 5606 5601 5597 5592 5590 5589 5588 5585 5583 5581 5578 5575 5572 5570 5568 5566 5565 5563 5562 5559 5556 5553
5644 5645 5636 5632 5640 5646 5651 5653 5655 5655 5657 5657 5657 5655 5650 5644 5637 5631 5625 5620 5615 5612 5608 5603 5599 5595 5592 5590 5587 5585 5583 5579 5575 5572 5569 5567 5564 5562 5560 5558 5556 5555 5553 5551
5650 5644 5635 5633 5642 5638 5642 5652 5656 5653 5652 5654 5653 5651 5650 5646 5640 5633 5627 5622 5617 5613 5609 5604 5600 5597 5593 5590 5587 5585 5582 5579 5574 5570 5566 5563 5561 5558 5556 5553 5551 5550 5548 5546